Starlink 1134

operational
NORAD ID: 45048 Int'l Des: 2020-006 Owner: SPXS Country: US Constellation: starlink
LEOCIRCULAR

About Starlink 1134

Description loading...

Live Position

Loading 3D Globe...

Upcoming Passes

Altitude History

Altitude vs Time

uPlot chart will show altitude changes over time

Two-Line Element Set

1 45048U 20006E 25350.06965583 .00026389 00000-0 82795-3 0 9998
2 45048 53.0368 272.6142 0004617 7.2882 352.8185 15.32876100324270
Epoch: Dec 16, 2025 • Age: 25 hours

Current Status

Altitude 477.9 km
Velocity 7.63 km/s
Sub-Earth Point -38.08°S, 108.56°E
Launch Date Jan 29, 2020
Age 5.8 years
Type internet

Technical Details

Classification Payload
Mass 260.00 kg
Dry Mass 248.00 kg
Total Mass 260.00 kg
Length 0.20 m
Diameter 2.80 m
Span 9.00 m
Shape Box + pan
Manufacturer SPXS
Bus Type Starlink
Phase Status In Orbit
Owner/State SPXS/US

Large Constellations

Loading constellations...